| time (UTC) | temp C | wind direction | speed KPH | gust KPH | rain 1hr cm | rain 24hr cm | rain mn cm | humidity % | barometer mb |
| 20260831071519 | 13 | 275 | 0.0 | 0.0 | 0.00 | 0.00 | 0.00 | 67 | 1016.0 |
| 20260831070017 | 13 | 275 | 0.0 | 1.6 | 0.00 | 0.00 | 0.00 | 67 | 1016.2 |
| 20260831064516 | 13 | 275 | 0.0 | 3.2 | 0.00 | 0.00 | 0.00 | 67 | 1016.5 |
| 20260831063023 | 13 | 59 | 0.0 | 1.6 | 0.00 | 0.00 | 0.00 | 67 | 1016.5 |
| 20260831061513 | 13 | 5 | 0.0 | 0.0 | 0.00 | 0.00 | 0.00 | 66 | 1016.6 |
| 20260831060014 | 13 | 5 | 0.0 | 3.2 | 0.00 | 0.00 | 0.00 | 65 | 1016.8 |
| 20260831054515 | 13 | 9 | 0.0 | 1.6 | 0.00 | 0.00 | 0.00 | 64 | 1016.8 |
| 20260831053011 | 14 | 9 | 0.0 | 0.0 | 0.00 | 0.00 | 0.00 | 63 | 1017.0 |
| 20260831051508 | 14 | 9 | 0.0 | 4.8 | 0.00 | 0.00 | 0.00 | 63 | 1017.2 |
| 20260831050008 | 15 | 276 | 0.0 | 1.6 | 0.00 | 0.00 | 0.00 | 61 | 1017.3 |
| 20260831044508 | 15 | 297 | 0.0 | 3.2 | 0.00 | 0.00 | 0.00 | 60 | 1017.3 |
| 20260831043007 | 15 | 297 | 0.0 | 1.6 | 0.00 | 0.00 | 0.00 | 59 | 1017.3 |
| 20260831041506 | 16 | 297 | 0.0 | 3.2 | 0.00 | 0.00 | 0.00 | 58 | 1017.4 |
| 20260831040006 | 16 | 20 | 0.0 | 3.2 | 0.00 | 0.00 | 0.00 | 57 | 1017.4 |
| 20260831034506 | 16 | 321 | 0.0 | 4.8 | 0.00 | 0.00 | 0.00 | 57 | 1017.3 |
| 20260831033005 | 16 | 67 | 1.6 | 4.8 | 0.00 | 0.00 | 0.00 | 55 | 1017.2 |
| 20260831031504 | 17 | 156 | 0.0 | 8.0 | 0.00 | 0.00 | 0.00 | 54 | 1017.2 |
| 20260831030004 | 17 | 69 | 0.0 | 6.4 | 0.00 | 0.00 | 0.00 | 53 | 1017.2 |
| 20260831024504 | 17 | 227 | 0.0 | 4.8 | 0.00 | 0.00 | 0.00 | 52 | 1017.2 |
| 20260831023002 | 18 | 111 | 0.0 | 6.4 | 0.00 | 0.00 | 0.00 | 51 | 1017.3 |
| 20260831021505 | 18 | 355 | 1.6 | 6.4 | 0.00 | 0.00 | 0.00 | 49 | 1017.3 |
| 20260831020002 | 19 | 16 | 0.0 | 6.4 | 0.00 | 0.00 | 0.00 | 47 | 1017.5 |
| 20260831014500 | 20 | 76 | 0.0 | 4.8 | 0.00 | 0.00 | 0.00 | 45 | 1017.4 |
| 20260831013109 | 20 | 55 | 0.0 | 6.4 | 0.00 | 0.00 | 0.00 | 44 | 1017.5 |
| 20260831011559 | 20 | 71 | 0.0 | 8.0 | 0.00 | 0.00 | 0.00 | 44 | 1017.5 |
| 20260831010121 | 20 | 45 | 0.0 | 6.4 | 0.00 | 0.00 | 0.00 | 42 | 1017.8 |
| 20260831004603 | 20 | 36 | 1.6 | 8.0 | 0.00 | 0.00 | 0.00 | 43 | 1017.9 |
| 20260831003105 | 20 | 165 | 0.0 | 3.2 | 0.00 | 0.00 | 0.00 | 44 | 1017.9 |
| 20260831001554 | 20 | 80 | 0.0 | 3.2 | 0.00 | 0.00 | 0.00 | 42 | 1018.1 |
| 20260831000053 | 21 | 183 | 0.0 | 3.2 | 0.00 | 0.00 | 0.00 | 42 | 1017.9 |
| 20260830234552 | 21 | 154 | 0.0 | 8.0 | 0.00 | 0.00 | 0.00 | 41 | 1018.1 |
| 20260830233051 | 21 | 55 | 1.6 | 8.0 | 0.00 | 0.00 | 0.00 | 41 | 1018.2 |
| 20260830231550 | 21 | 225 | 1.6 | 6.4 | 0.00 | 0.00 | 0.00 | 42 | 1018.3 |
| 20260830230049 | 22 | 355 | 0.0 | 6.4 | 0.00 | 0.00 | 0.00 | 38 | 1018.3 |
| 20260830224548 | 22 | 350 | 1.6 | 8.0 | 0.00 | 0.00 | 0.00 | 38 | 1018.3 |
| 20260830223046 | 22 | 155 | 3.2 | 11.3 | 0.00 | 0.00 | 0.00 | 39 | 1018.4 |
| 20260830221541 | 21 | 167 | 1.6 | 8.0 | 0.00 | 0.00 | 0.00 | 41 | 1018.7 |
| 20260830220041 | 21 | 163 | 4.8 | 12.9 | 0.00 | 0.00 | 0.00 | 41 | 1018.9 |
| 20260830214541 | 21 | 246 | 4.8 | 14.5 | 0.00 | 0.00 | 0.00 | 41 | 1018.9 |
| 20260830213037 | 21 | 264 | 4.8 | 12.9 | 0.00 | 0.00 | 0.00 | 45 | 1018.9 |
| 20260830211534 | 20 | 139 | 4.8 | 12.9 | 0.00 | 0.00 | 0.00 | 46 | 1019.1 |
| 20260830210033 | 20 | 140 | 3.2 | 14.5 | 0.00 | 0.00 | 0.00 | 47 | 1019.0 |
| 20260830204535 | 20 | 124 | 3.2 | 12.9 | 0.00 | 0.00 | 0.00 | 50 | 1019.0 |
| 20260830203029 | 20 | 65 | 1.6 | 9.7 | 0.00 | 0.00 | 0.00 | 52 | 1019.1 |
| 20260830201526 | 20 | 188 | 3.2 | 14.5 | 0.00 | 0.00 | 0.00 | 52 | 1019.2 |
| 20260830200025 | 19 | 157 | 0.0 | 12.9 | 0.00 | 0.00 | 0.00 | 54 | 1019.4 |
| 20260830194524 | 20 | 145 | 4.8 | 12.9 | 0.00 | 0.00 | 0.00 | 53 | 1019.5 |
| 20260830193022 | 19 | 144 | 0.0 | 11.3 | 0.00 | 0.00 | 0.00 | 53 | 1019.6 |
| 20260830191519 | 18 | 177 | 4.8 | 11.3 | 0.00 | 0.00 | 0.00 | 55 | 1019.6 |
| 20260830190017 | 18 | 35 | 1.6 | 8.0 | 0.00 | 0.00 | 0.00 | 56 | 1019.7 |
| 20260830184515 | 18 | 177 | 0.0 | 11.3 | 0.00 | 0.00 | 0.00 | 57 | 1019.9 |
| 20260830183013 | 18 | 209 | 0.0 | 12.9 | 0.00 | 0.00 | 0.00 | 56 | 1019.8 |
| 20260830181512 | 17 | 24 | 0.0 | 12.9 | 0.00 | 0.00 | 0.00 | 59 | 1019.6 |
| 20260830180008 | 17 | 161 | 3.2 | 11.3 | 0.00 | 0.00 | 0.00 | 59 | 1019.5 |
| 20260830174507 | 16 | 224 | 1.6 | 11.3 | 0.00 | 0.00 | 0.00 | 61 | 1019.6 |
| 20260830173005 | 16 | 248 | 3.2 | 9.7 | 0.00 | 0.00 | 0.00 | 61 | 1019.6 |
| 20260830171505 | 16 | 176 | 3.2 | 6.4 | 0.00 | 0.00 | 0.00 | 61 | 1019.6 |
| 20260830170100 | 16 | 87 | 0.0 | 4.8 | 0.00 | 0.00 | 0.00 | 63 | 1019.6 |
| 20260830164559 | 15 | 153 | 0.0 | 6.4 | 0.00 | 0.00 | 0.00 | 64 | 1019.5 |
| 20260830163101 | 15 | 161 | 1.6 | 6.4 | 0.00 | 0.00 | 0.00 | 64 | 1019.6 |
| 20260830161607 | 15 | 220 | 1.6 | 6.4 | 0.00 | 0.00 | 0.00 | 65 | 1019.5 |
| 20260830160052 | 14 | 209 | 0.0 | 4.8 | 0.00 | 0.00 | 0.00 | 65 | 1019.7 |
| 20260830154550 | 13 | 169 | 1.6 | 6.4 | 0.00 | 0.00 | 0.00 | 65 | 1019.6 |
| 20260830153047 | 13 | 161 | 0.0 | 9.7 | 0.00 | 0.00 | 0.00 | 65 | 1019.5 |
| 20260830151549 | 13 | 159 | 0.0 | 3.2 | 0.00 | 0.00 | 0.00 | 66 | 1019.5 |
| 20260830150045 | 13 | 144 | 0.0 | 6.4 | 0.00 | 0.00 | 0.00 | 68 | 1019.5 |
| 20260830144544 | 12 | 160 | 0.0 | 0.0 | 0.00 | 0.03 | 0.00 | 78 | 1019.6 |
| 20260830143044 | 12 | 160 | 0.0 | 0.0 | 0.00 | 0.03 | 0.00 | 78 | 1019.4 |
| 20260830141542 | 11 | 160 | 0.0 | 3.2 | 0.00 | 0.03 | 0.00 | 73 | 1019.3 |
| 20260830140054 | 11 | 157 | 0.0 | 0.0 | 0.00 | 0.03 | 0.00 | 70 | 1019.2 |
| 20260830134539 | 11 | 157 | 0.0 | 0.0 | 0.00 | 0.23 | 0.00 | 70 | 1019.1 |
| 20260830133045 | 11 | 157 | 0.0 | 0.0 | 0.00 | 0.23 | 0.00 | 69 | 1019.1 |
| 20260830131536 | 11 | 157 | 0.0 | 0.0 | 0.00 | 0.23 | 0.00 | 68 | 1019.2 |
| 20260830130042 | 12 | 157 | 0.0 | 0.0 | 0.00 | 0.23 | 0.00 | 68 | 1019.2 |
| 20260830124540 | 12 | 157 | 0.0 | 0.0 | 0.00 | 0.43 | 0.00 | 67 | 1019.1 |
| 20260830123035 | 12 | 157 | 0.0 | 0.0 | 0.00 | 0.43 | 0.00 | 67 | 1019.2 |
| 20260830121531 | 13 | 157 | 0.0 | 0.0 | 0.00 | 0.43 | 0.00 | 66 | 1019.1 |
| 20260830120030 | 13 | 157 | 0.0 | 1.6 | 0.00 | 0.43 | 0.00 | 66 | 1019.1 |
| 20260830114531 | 13 | 157 | 0.0 | 0.0 | 0.00 | 1.22 | 0.00 | 66 | 1019.2 |
| 20260830113029 | 13 | 157 | 0.0 | 0.0 | 0.00 | 1.22 | 0.00 | 65 | 1019.2 |
| 20260830111528 | 13 | 157 | 0.0 | 0.0 | 0.00 | 1.22 | 0.00 | 65 | 1019.0 |
| 20260830110039 | 13 | 157 | 0.0 | 1.6 | 0.00 | 1.22 | 0.00 | 65 | 1019.1 |
| 20260830104534 | 13 | 157 | 0.0 | 1.6 | 0.00 | 1.22 | 0.00 | 65 | 1019.0 |
| 20260830103025 | 13 | 157 | 0.0 | 3.2 | 0.00 | 1.22 | 0.00 | 65 | 1018.9 |
| 20260830101526 | 13 | 157 | 0.0 | 0.0 | 0.00 | 1.22 | 0.00 | 65 | 1018.9 |
| 20260830100024 | 13 | 157 | 0.0 | 1.6 | 0.00 | 1.22 | 0.00 | 64 | 1019.0 |
| 20260830094524 | 13 | 30 | 0.0 | 3.2 | 0.00 | 1.22 | 0.00 | 64 | 1019.0 |
| 20260830093024 | 13 | 32 | 0.0 | 3.2 | 0.00 | 1.22 | 0.00 | 64 | 1018.8 |
| 20260830091520 | 13 | 328 | 0.0 | 3.2 | 0.00 | 1.22 | 0.00 | 65 | 1018.9 |
| 20260830090018 | 13 | 44 | 0.0 | 4.8 | 0.00 | 1.22 | 0.00 | 65 | 1018.8 |
| 20260830084514 | 13 | 12 | 0.0 | 4.8 | 0.00 | 1.22 | 0.00 | 66 | 1018.9 |
| 20260830083013 | 12 | 121 | 0.0 | 3.2 | 0.00 | 1.22 | 0.00 | 67 | 1018.8 |
| 20260830081511 | 12 | 117 | 0.0 | 4.8 | 0.00 | 1.22 | 0.00 | 67 | 1018.8 |
| 20260830080008 | 12 | 121 | 0.0 | 1.6 | 0.00 | 1.22 | 0.00 | 67 | 1018.8 |
| 20260830074505 | 12 | 120 | 0.0 | 1.6 | 0.00 | 1.22 | 0.00 | 67 | 1018.8 |
| 20260830073004 | 12 | 109 | 0.0 | 1.6 | 0.00 | 1.22 | 0.00 | 68 | 1018.5 |